This is the latest recevied weather packets stored in our database for station/object N3WMC. If no packets are shown the sender has not sent any weather packets the latest 10 day(s).
| Time | Temp. | Humidity | Pressure | Rain* | Wind** | Luminosity | Snow |
|---|---|---|---|---|---|---|---|
| 1787956387 | 25° C | 51% | 1021 hPa | 0 mm | - | 57 W/m² | - |
| 1787956081 | 25.56° C | 51% | 1021.1 hPa | 0 mm | - | 64 W/m² | - |
| 1787955777 | 26.11° C | 51% | 1021.2 hPa | 0 mm | - | 71 W/m² | - |
| 1787955473 | 26.11° C | 49% | 1021 hPa | 0 mm | - | 80 W/m² | - |
| 1787955170 | 25.56° C | 49% | 1021.3 hPa | 0 mm | - | 88 W/m² | - |
| 1787954866 | 25.56° C | 49% | 1020.8 hPa | 0 mm | - | 96 W/m² | - |
| 1787954562 | 25° C | 48% | 1020.9 hPa | 0 mm | - | 106 W/m² | - |
| 1787954256 | 25.56° C | 50% | 1021 hPa | 0 mm | - | 113 W/m² | - |
| 1787953950 | 25.56° C | 51% | 1020.8 hPa | 0 mm | - | 124 W/m² | - |
| 1787953649 | 26.11° C | 53% | 1020.9 hPa | 0 mm | - | 132 W/m² | - |
| 1787953344 | 26.11° C | 53% | 1020.9 hPa | 0 mm | - | 147 W/m² | - |
| 1787953042 | 25.56° C | 53% | 1020.7 hPa | 0 mm | - | 161 W/m² | - |
| 1787952742 | 26.11° C | 53% | 1020.7 hPa | 0 mm | - | 166 W/m² | - |
| 1787952436 | 26.11° C | 53% | 1020.8 hPa | 0 mm | - | 173 W/m² | - |
| 1787952133 | 25.56° C | 53% | 1020.8 hPa | 0 mm | - | 185 W/m² | - |
| 1787951832 | 26.11° C | 53% | 1020.9 hPa | 0 mm | - | 196 W/m² | - |
| 1787951528 | 25.56° C | 56% | 1020.9 hPa | 0 mm | - | 207 W/m² | - |
| 1787951223 | 25.56° C | 58% | 1020.8 hPa | 0 mm | - | 221 W/m² | - |
| 1787950919 | 25.56° C | 59% | 1020.9 hPa | 0 mm | - | 255 W/m² | - |
| 1787950614 | 25.56° C | 59% | 1020.9 hPa | 0 mm | - | 259 W/m² | - |
| 1787950310 | 26.11° C | 57% | 1020.9 hPa | 0 mm | - | 288 W/m² | - |
| 1787950006 | 25° C | 59% | 1021 hPa | 0 mm | - | 337 W/m² | - |
| 1787949701 | 24.44° C | 60% | 1021 hPa | 0 mm | - | 116 W/m² | - |
| 1787949401 | 25° C | 61% | 1021 hPa | 0 mm | - | 97 W/m² | - |
| 1787949096 | 25° C | 59% | 1020.8 hPa | 0 mm | - | 128 W/m² | - |
* Rain latest hour (hover to see other rain measurements)
** Current wind speed in m/s (hover to see current wind gust speed)